#timestamp,LO_Frequency,Hit,StdDev 
1679734815.4,286046998.7,N
1679734835.2,286047002.0,N
1679734855.0,286046998.7,N
1679734855.9,286046998.7,N
1679734875.8,286046998.7,N
1679734895.6,286047001.1,N
1679734915.5,286047002.3,N
1679734935.3,286047000.3,N
1679734955.1,286047001.1,N
1679734975.9,286047000.8,N
1679734995.7,286047000.2,N
1679735015.5,286047004.1,N
1679735035.4,286047004.2,N
1679735055.2,286047004.3,N
1679735075.1,286047005.4,N
1679735076.0,286047005.4,N
1679735095.8,286047005.9,N
1679735115.6,286047004.4,N
1679735135.5,286047003.8,N
1679735155.3,286047004.1,N
1679735175.1,286047000.5,N
1679735195.9,286047000.9,N
1679735215.7,286047001.0,N
1679735235.6,286046998.7,N
1679735255.4,286046999.8,N
1679735275.2,286047000.2,N
1679735295.1,286047002.6,N
1679735296.0,286047002.6,N
1679735315.8,286047000.0,N
1679735335.7,286047002.8,N
1679735355.5,286047000.6,N
1679735375.3,286047002.7,N
1679735395.2,286047001.1,N
1679735415.0,286047002.2,N
1679735415.9,286047002.2,N
1679735435.8,286047003.8,N
1679735455.6,286047006.0,Y
1679735475.4,286047004.4,P
1679735495.3,286047002.7,N
1679735515.1,286046999.4,N
1679735535.8,286046996.9,N
1679735555.7,286046997.1,N
1679735575.5,286046999.4,N
1679735595.4,286046998.4,N
1679735615.2,286046999.3,N
1679735635.0,286046997.2,N
1679735635.9,286046997.2,N
1679735655.8,286046999.3,N
1679735675.6,286046999.3,N
1679735695.4,286046998.7,N
1679735715.3,286047000.2,N
1679735735.1,286047002.4,N
1679735755.9,286047000.1,N
1679735775.7,286047002.7,N
1679735795.5,286047001.3,N
1679735815.4,286047002.5,N
1679735835.2,286046999.2,N
1679735855.0,286046998.7,N
1679735856.0,286046998.7,N
1679735875.8,286046998.2,N
1679735895.6,286047002.4,N
1679735915.5,286046999.8,N
1679735935.3,286046999.9,N
1679735955.2,286047000.0,N
1679735975.9,286047002.8,N
1679735995.7,286047000.7,N
1679736015.6,286046997.2,N
1679736035.4,286046995.5,N
1679736055.2,286046997.5,N
1679736075.1,286046997.0,N
1679736076.0,286046997.0,N
1679736095.8,286046998.8,N
1679736115.7,286046999.3,N
1679736135.5,286047000.8,N
1679736155.3,286046999.7,N
1679736175.2,286047001.6,N
1679736195.0,286047001.5,N
1679736195.9,286047001.5,N
1679736215.8,286047002.3,N
1679736235.6,286046999.9,N
1679736255.4,286047000.2,N
1679736275.3,286047000.6,N
1679736295.1,286047002.5,N
1679736315.9,286047002.3,N
1679736335.7,286047004.2,N
1679736355.5,286047003.4,N
1679736375.4,286047003.4,N
1679736395.2,286047003.1,N
1679736415.0,286047005.9,N
1679736416.0,286047005.9,N
1679736435.8,286047000.1,N
1679736455.6,286047000.5,N
1679736475.5,286047000.8,N
1679736495.3,286046999.5,N
1679736515.1,286046997.1,N
1679736535.9,286046998.9,N
1679736555.7,286046999.5,N
1679736575.6,286046998.2,N
1679736595.4,286046999.3,N
1679736615.2,286046997.6,N
1679736635.1,286046996.5,N
1679736636.0,286046996.5,N
1679736655.8,286046999.5,N
1679736675.7,286046999.2,N
1679736695.5,286046999.6,N
1679736715.3,286046999.1,N
1679736735.2,286046998.3,N
1679736755.0,286047000.9,N
1679736755.9,286047000.9,N
1679736775.8,286047000.0,N
1679736795.6,286047001.0,N
1679736815.4,286047002.1,N
1679736835.3,286047004.4,N
1679736855.1,286047005.1,N
1679736875.9,286047005.2,N
1679736895.7,286047003.1,N
1679736915.5,286047000.3,N
1679736935.4,286047001.0,N
1679736955.2,286047000.9,N
1679736975.1,286047002.6,N
1679736976.0,286047002.6,N
1679736995.8,286047000.2,N
1679737015.6,286046999.8,N
1679737035.5,286047002.8,N
1679737055.3,286047001.3,N
1679737075.1,286047003.5,N
1679737095.9,286047002.6,N
1679737115.7,286046998.9,N
1679737135.6,286046996.8,N
1679737155.4,286047000.7,N
1679737175.2,286047000.7,N
1679737195.1,286047000.0,N
1679737196.0,286047000.0,N
1679737215.8,286047000.3,N
1679737235.7,286047002.6,N
1679737255.5,286047001.0,N
1679737275.3,286047002.8,N
1679737295.2,286046999.8,N
1679737315.0,286047002.6,N
1679737315.9,286047002.6,N
1679737335.8,286047002.7,N
1679737355.6,286047001.1,N
1679737375.4,286047000.3,N
1679737395.3,286047002.4,N
1679737415.1,286047001.1,N
1679737435.8,286046996.8,N
1679737455.7,286046997.8,N
1679737475.5,286046996.8,N
1679737495.4,286046998.6,N
1679737515.2,286047001.2,N
1679737535.0,286047001.1,N
1679737535.9,286047001.1,N
1679737555.8,286046998.5,N
1679737575.6,286047001.0,N
1679737595.5,286047000.2,N
1679737615.3,286046999.1,N
1679737635.1,286046997.2,N
1679737655.9,286046996.9,N
1679737675.7,286046998.7,N
1679737695.5,286046998.6,N
1679737715.4,286047001.2,N
1679737735.2,286047002.7,N
1679737755.1,286046999.9,N
1679737756.0,286046999.9,N
1679737775.8,286046998.5,N
1679737795.6,286047000.7,N
1679737815.5,286047000.6,N
1679737835.3,286047002.7,N
1679737855.1,286046998.5,N
1679737875.9,286047000.0,N
1679737895.7,286047000.9,N
1679737915.6,286046998.2,N
1679737935.4,286046999.9,N
1679737955.2,286046999.3,N
1679737975.1,286046999.5,N
1679737976.0,286046999.5,N
1679737995.8,286046998.7,N
1679738015.6,286046997.0,N
1679738035.5,286046998.2,N
1679738055.3,286047002.2,N
1679738075.2,286047000.7,N
1679738095.9,286047000.9,N
1679738115.7,286047000.7,N
1679738135.6,286047002.2,N
1679738155.4,286047001.7,N
1679738175.2,286047004.0,N
1679738195.1,286047002.1,N
1679738196.0,286047002.1,N
1679738215.8,286047002.7,N
1679738235.7,286047000.8,N
1679738255.5,286047000.2,N
1679738275.3,286047002.5,N
1679738295.2,286047000.4,N
1679738315.0,286046997.7,N
1679738315.9,286046997.7,N
1679738335.7,286046996.7,N
1679738355.6,286046997.7,N
1679738375.4,286046996.7,N
1679738395.3,286046998.1,N
